TimeCDT,TemperatureF,Dew PointF,Humidity,Sea Level PressureIn,VisibilityMPH,Wind Direction,Wind SpeedMPH,Gust SpeedMPH,PrecipitationIn,Events,Conditions,WindDirDegrees,DateUTC
12:52 AM,39.9,36.0,86,29.87,6.0,South,10.4,-,0.06,Rain,Light Rain,180,2013-03-10 06:52:00
1:52 AM,39.0,37.9,96,29.85,5.0,South,10.4,-,0.15,Rain,Light Rain,170,2013-03-10 07:52:00
3:52 AM,39.9,39.0,97,29.81,5.0,SSE,13.8,-,0.08,Rain,Light Rain,160,2013-03-10 08:52:00
4:26 AM,39.2,39.2,100,29.79,2.0,SSE,10.4,-,0.03,Rain,Light Rain,160,2013-03-10 09:26:00
4:45 AM,39.2,39.2,100,29.78,3.0,SSE,12.7,-,0.05,Rain,Light Rain,160,2013-03-10 09:45:00
4:52 AM,39.9,39.9,100,29.80,4.0,South,17.3,23.0,0.05,Rain,Light Rain,170,2013-03-10 09:52:00
5:09 AM,39.2,39.2,100,29.80,2.5,South,12.7,-,0.06,Rain,Rain,170,2013-03-10 10:09:00
5:26 AM,39.2,39.2,100,29.80,2.0,SSE,9.2,-,0.14,Rain,Rain,160,2013-03-10 10:26:00
5:33 AM,39.2,39.2,100,29.81,1.5,SSE,10.4,-,0.16,Rain,Rain,160,2013-03-10 10:33:00
5:52 AM,39.9,39.9,100,29.82,2.0,SSE,11.5,-,0.18,Rain,Light Rain,150,2013-03-10 10:52:00
6:07 AM,39.2,39.2,100,29.80,3.0,SSE,10.4,-,0.01,Rain,Light Rain,150,2013-03-10 11:07:00
6:25 AM,39.2,39.2,100,29.79,2.0,SE,9.2,-,0.02,Rain,Light Rain,140,2013-03-10 11:25:00
6:35 AM,39.2,39.2,100,29.78,1.8,SE,10.4,-,0.02,Rain,Light Rain,140,2013-03-10 11:35:00
7:52 AM,39.9,39.0,97,29.78,3.0,SE,10.4,-,0.06,,Mostly Cloudy,140,2013-03-10 12:52:00
8:22 AM,39.2,39.2,100,29.76,3.0,SE,9.2,-,N/A,,Overcast,140,2013-03-10 13:22:00
8:52 AM,39.9,39.0,97,29.81,4.0,SSE,4.6,-,N/A,,Mostly Cloudy,150,2013-03-10 13:52:00
9:26 AM,39.2,39.2,100,29.79,3.0,Calm,Calm,-,0.00,Rain,Light Rain,0,2013-03-10 14:26:00
9:52 AM,41.0,39.9,96,29.80,4.0,SSE,8.1,-,0.00,,Mostly Cloudy,160,2013-03-10 14:52:00
10:52 AM,41.0,39.9,96,29.80,4.0,SSE,8.1,-,0.01,Rain,Light Rain,150,2013-03-10 15:52:00
11:47 AM,42.8,41.0,93,29.74,5.0,East,5.8,-,0.01,,Overcast,100,2013-03-10 16:47:00
11:52 AM,43.0,41.0,93,29.77,4.0,ESE,5.8,-,0.01,,Overcast,120,2013-03-10 16:52:00
12:52 PM,41.0,39.9,96,29.78,4.0,East,5.8,-,0.01,Rain,Light Rain,100,2013-03-10 17:52:00
1:20 PM,39.2,39.2,100,29.76,1.8,ESE,5.8,-,0.04,Rain,Rain,120,2013-03-10 18:20:00
1:31 PM,42.8,41.0,93,29.75,2.0,ESE,4.6,-,0.07,Rain,Light Rain,110,2013-03-10 18:31:00
1:52 PM,39.9,39.9,100,29.76,1.5,Calm,Calm,-,0.09,Rain,Rain,0,2013-03-10 18:52:00
2:07 PM,42.8,41.0,93,29.73,2.0,SE,5.8,-,0.03,Rain,Light Rain,130,2013-03-10 19:07:00
2:26 PM,42.8,42.8,100,29.71,2.5,SE,6.9,-,0.04,Rain,Light Rain,130,2013-03-10 19:26:00
2:52 PM,42.1,42.1,100,29.70,1.0,East,4.6,-,0.05,Rain,Light Rain,100,2013-03-10 19:52:00
2:57 PM,42.8,41.0,93,29.68,0.2,East,5.8,-,0.00,Fog-Rain,Light Rain,90,2013-03-10 19:57:00
3:52 PM,44.1,44.1,100,29.71,0.5,SE,6.9,-,0.06,Fog-Rain,Rain,130,2013-03-10 20:52:00
4:03 PM,44.6,42.8,93,29.70,0.2,Calm,Calm,-,0.05,Fog-Rain,Rain,0,2013-03-10 21:03:00
4:17 PM,39.2,39.2,100,29.69,0.2,NNE,3.5,-,0.09,Fog-Rain,Rain,30,2013-03-10 21:17:00
4:52 PM,41.0,41.0,100,29.69,0.2,East,6.9,-,0.17,Fog-Rain,Light Rain,80,2013-03-10 21:52:00
5:11 PM,42.8,42.8,100,29.66,0.2,East,8.1,-,0.01,Fog-Rain,Light Rain,80,2013-03-10 22:11:00
5:52 PM,42.1,42.1,100,29.64,0.2,ENE,8.1,-,0.01,Fog-Rain,Light Rain,70,2013-03-10 22:52:00
6:36 PM,44.6,44.6,100,29.61,1.0,East,9.2,-,0.01,,Overcast,90,2013-03-10 23:36:00
6:48 PM,42.8,42.8,100,29.60,2.5,East,9.2,-,0.01,,Overcast,100,2013-03-10 23:48:00
6:52 PM,44.1,43.0,96,29.62,2.5,East,8.1,-,0.01,,Overcast,100,2013-03-10 23:52:00
6:59 PM,44.6,44.6,100,29.60,4.0,ESE,9.2,-,N/A,,Overcast,110,2013-03-10 23:59:00
7:25 PM,44.6,42.8,93,29.61,7.0,SE,12.7,-,N/A,,Overcast,140,2013-03-11 00:25:00
7:52 PM,45.0,43.0,93,29.62,8.0,South,12.7,-,N/A,,Overcast,170,2013-03-11 00:52:00
7:59 PM,44.6,42.8,93,29.62,8.0,South,15.0,-,N/A,,Overcast,180,2013-03-11 00:59:00
8:21 PM,46.4,44.6,93,29.63,7.0,South,16.1,23.0,N/A,,Overcast,180,2013-03-11 01:21:00
8:52 PM,43.0,43.0,100,29.65,3.0,South,10.4,-,N/A,,Overcast,170,2013-03-11 01:52:00
8:58 PM,42.8,42.8,100,29.64,1.8,South,9.2,-,N/A,,Overcast,180,2013-03-11 01:58:00
9:03 PM,42.8,42.8,100,29.64,0.8,South,9.2,-,N/A,,Overcast,180,2013-03-11 02:03:00
9:14 PM,42.8,42.8,100,29.64,0.2,South,9.2,-,N/A,Fog,Fog,170,2013-03-11 02:14:00
9:24 PM,42.8,42.8,100,29.65,0.2,South,9.2,-,N/A,Fog,Fog,180,2013-03-11 02:24:00
9:34 PM,42.8,42.8,100,29.65,0.2,South,9.2,-,N/A,Fog,Fog,180,2013-03-11 02:34:00
11:52 PM,42.1,42.1,100,29.65,0.2,South,8.1,-,0.00,Fog-Rain,Light Rain,190,2013-03-11 04:52:00
12:12 AM,42.8,42.8,100,29.63,0.5,SSW,10.4,-,0.01,Fog,Fog,210,2013-03-11 05:12:00
12:23 AM,44.6,44.6,100,29.63,1.5,SSW,10.4,-,0.01,,Overcast,210,2013-03-11 05:23:00
12:32 AM,44.6,44.6,100,29.63,2.5,SW,12.7,-,0.01,,Overcast,220,2013-03-11 05:32:00
12:47 AM,42.8,42.8,100,29.63,0.8,SSW,11.5,-,0.01,,Overcast,210,2013-03-11 05:47:00
12:48 AM,43.0,43.0,100,29.64,0.8,SSW,11.5,-,0.01,,Overcast,210,2013-03-11 05:48:00